Theta_e
308 308 308 308 308 308 309 309 309 309 309 309 310 311 310 311 308 306 307 303 309 308 313 313 314 309 309 308 311 311 313 315 318 319 320 318 318 319 319 318 319 319 318 322 324
308 308 308 308 308 309 308 308 308 309 309 310 310 310 309 309 307 307 308 305 314 308 309 314 310 307 308 310 310 312 310 313 314 317 317 316 316 316 317 317 317 317 317 321 323
307 308 308 308 309 309 308 308 309 309 309 309 309 308 308 310 309 316 317 308 311 313 313 310 308 305 308 310 310 310 311 311 314 315 314 314 315 315 316 316 316 317 317 317 322
307 307 308 308 308 309 309 309 309 309 309 308 308 306 308 311 317 315 317 311 315 317 311 307 312 309 307 308 309 312 311 312 313 313 313 313 314 315 314 315 315 315 315 317 318
305 307 307 308 309 309 309 309 308 309 309 308 307 306 308 307 305 311 315 313 313 310 308 313 312 307 307 306 307 309 309 309 309 308 309 310 311 312 312 313 314 314 314 315 316
305 305 305 306 307 308 308 308 309 308 309 309 307 309 311 301 306 313 315 313 308 308 311 314 312 308 310 309 309 306 308 309 309 309 309 311 312 311 313 314 313 313 313 313 316
306 305 305 303 304 306 308 308 309 310 310 311 307 310 310 299 309 313 313 309 310 313 315 315 315 311 309 311 309 309 310 308 309 310 310 308 310 311 311 311 312 313 312 312 313
308 306 304 301 302 305 306 308 308 310 308 311 308 311 304 305 311 311 312 310 310 311 314 316 313 310 310 308 306 308 305 308 308 309 310 310 310 311 310 310 310 311 311 312 312
308 307 306 304 301 302 306 308 308 311 307 304 309 310 312 313 314 313 314 312 313 314 314 314 310 308 307 306 306 304 307 309 309 309 309 310 310 310 310 309 309 309 309 310 310
309 309 309 306 305 302 304 311 311 312 310 310 311 309 311 314 317 315 313 312 312 312 311 310 305 307 303 305 308 308 309 308 310 310 308 308 308 308 308 308 309 309 308 308 309
309 310 311 307 305 305 304 311 309 311 313 312 313 309 313 315 317 311 313 310 311 311 310 308 309 309 308 307 308 309 309 309 309 309 310 309 310 309 308 308 307 308 308 308 308
309 309 310 309 306 306 306 308 313 313 314 313 314 312 313 314 315 316 311 310 309 309 309 308 308 308 308 308 309 309 309 309 309 310 308 309 311 308 308 308 308 308 308 308 308
309 309 308 311 305 305 309 312 313 312 313 313 314 314 314 313 315 316 308 308 309 308 308 308 310 310 309 310 311 310 310 310 310 313 311 310 312 312 310 308 308 308 307 308 308
309 309 307 310 307 308 308 312 312 313 313 314 317 316 316 314 315 316 311 312 311 310 308 308 308 310 310 310 309 310 309 311 316 315 316 312 317 313 312 310 309 308 308 307 307
308 308 306 308 307 303 311 311 313 313 317 318 317 316 314 315 313 315 313 312 312 311 309 310 310 310 310 310 310 311 312 315 317 315 312 313 309 314 311 312 309 311 308 308 307
305 305 306 308 307 309 307 312 313 318 320 320 314 314 315 313 313 311 313 312 311 310 310 310 310 309 310 311 311 315 316 315 312 311 314 313 311 314 312 311 310 310 309 308 309
305 305 308 307 308 311 308 312 315 321 315 317 315 314 311 312 312 312 312 311 311 312 311 311 311 310 311 314 315 312 312 314 314 314 317 313 314 313 311 312 311 313 313 310 307
308 309 308 307 309 308 313 315 315 314 318 315 314 314 315 312 312 312 312 310 311 309 310 311 313 313 317 314 314 313 313 314 316 316 315 314 316 313 310 311 313 312 312 310 309
308 309 308 312 312 310 310 315 310 320 314 314 314 314 313 311 311 310 310 310 311 310 311 313 314 314 317 315 313 316 316 313 314 312 312 313 313 312 311 313 313 313 313 312 311
306 304 309 310 309 311 308 310 314 316 314 314 313 312 312 310 310 310 309 312 314 313 310 311 313 312 316 314 314 315 314 316 311 313 314 313 312 312 311 313 314 313 313 312 311
305 306 310 311 313 309 313 314 316 316 316 314 312 312 311 311 311 312 312 313 312 311 310 311 311 312 313 313 313 315 316 313 310 311 312 315 312 309 313 315 312 312 312 312 312
302 310 310 310 314 308 314 313 313 316 316 316 313 312 311 311 312 313 314 314 311 310 310 312 314 313 313 310 311 310 312 312 311 312 316 315 314 310 309 311 311 312 313 312 313
302 302 310 309 313 308 309 312 313 315 316 315 314 313 310 310 309 311 312 311 310 310 311 313 312 313 312 309 310 314 314 311 309 307 311 315 312 309 309 309 311 311 312 312 314
303 308 304 302 304 308 311 312 314 313 315 315 315 312 312 312 308 309 308 309 309 308 313 315 311 312 313 312 308 309 311 313 311 305 312 313 312 311 310 311 312 311 310 312 313
303 308 305 306 307 308 309 313 313 313 314 313 315 314 312 312 307 307 308 307 308 308 309 308 309 309 309 309 308 308 309 309 311 311 312 311 311 310 311 312 311 311 310 311 311
304 306 304 306 308 310 310 313 312 314 314 313 314 313 312 314 311 311 309 307 306 307 307 304 307 309 309 309 309 310 310 310 310 310 309 310 311 310 313 311 311 310 310 310 309
302 304 306 308 309 309 311 311 313 311 311 312 313 312 313 312 311 308 306 305 304 305 305 304 305 306 308 309 310 310 310 309 312 313 312 315 314 315 313 313 311 309 308 306 307
Wind_Speed
18 17 16 15 15 14 13 13 11 11 11 11 12 13 13 14 15 8 7 8 3 10 6 3 2 4 4 2 2 3 3 3 5 5 6 4 5 1 4 6 1 2 4 8 13
19 18 17 15 15 14 14 13 12 11 10 11 11 11 11 12 11 10 9 8 6 17 5 4 3 4 3 2 1 4 4 8 5 4 6 3 2 7 3 6 6 6 7 11 8
20 19 17 15 14 13 13 12 12 10 10 9 9 10 9 9 3 5 3 10 11 11 5 4 5 4 3 2 2 3 5 4 3 5 5 5 7 5 5 9 10 9 6 11 10
21 20 19 16 14 13 12 11 11 10 9 8 8 7 7 2 4 3 1 14 13 9 5 5 3 4 4 4 4 3 7 5 3 5 4 8 5 9 8 12 9 10 7 9 9
24 22 20 17 15 13 11 10 9 9 8 7 6 3 1 1 7 2 7 13 10 11 10 5 5 5 5 4 4 4 3 2 6 7 6 9 11 11 10 8 14 12 11 11 11
29 26 21 18 15 12 11 10 9 8 8 7 4 1 1 2 1 1 9 12 9 9 7 6 6 5 3 2 4 5 3 4 5 6 5 6 9 5 2 5 10 9 12 9 11
32 30 24 18 16 13 10 9 8 8 8 5 2 2 0 10 3 1 11 7 9 9 3 5 3 3 3 2 0 1 4 6 4 5 6 5 6 6 8 7 9 11 10 7 9
33 32 26 21 15 12 11 10 8 6 6 4 5 2 6 3 3 5 13 7 7 10 9 9 3 2 2 2 6 3 4 3 6 3 6 6 7 7 8 3 7 11 9 11 8
36 32 28 24 20 13 13 12 9 3 1 5 3 1 8 3 5 10 14 5 7 7 9 8 2 2 5 5 4 7 1 0 7 3 4 3 5 6 8 9 9 7 9 9 11
36 33 33 25 19 17 12 8 3 6 5 2 2 3 6 3 3 8 16 11 2 3 4 4 4 3 4 4 3 2 1 3 5 5 3 10 13 10 12 8 10 9 8 8 9
39 40 37 30 19 16 9 1 2 0 4 8 5 4 4 5 5 5 10 7 3 2 3 2 3 6 9 7 5 3 4 5 7 12 4 11 11 11 10 7 10 11 10 9 10
39 42 43 36 21 13 3 2 2 2 8 12 13 8 11 4 5 2 14 5 5 6 3 4 6 10 6 4 5 5 4 6 7 8 5 9 16 9 6 6 9 9 10 12 9
38 41 45 42 14 3 5 4 3 4 2 6 5 5 5 10 5 6 9 4 5 6 6 7 8 6 6 4 4 5 4 5 8 4 5 8 14 4 3 6 8 9 9 9 11
37 40 44 40 3 2 5 2 10 7 4 5 3 3 5 6 3 11 12 6 1 9 7 6 5 7 2 7 6 6 7 7 4 1 4 3 17 10 7 9 5 11 10 11 11
37 39 42 25 11 4 2 8 3 2 4 1 1 10 5 7 1 2 6 3 8 6 6 9 4 3 5 9 7 9 5 7 3 4 2 5 8 5 6 11 12 14 10 13 12
40 39 40 12 8 8 5 7 2 3 4 2 4 5 4 3 2 4 3 4 2 5 3 6 1 6 8 2 5 2 2 3 4 2 4 8 8 0 2 7 6 11 14 13 16
41 40 34 11 3 2 8 2 3 3 4 4 3 1 5 5 2 3 4 5 6 3 5 5 10 5 4 3 2 4 5 3 4 3 12 4 5 10 10 14 7 11 18 17 11
41 40 18 11 4 4 1 3 3 2 4 4 5 6 2 1 2 2 2 1 3 3 2 4 9 6 4 6 7 4 7 4 6 8 15 3 6 6 7 6 5 8 7 11 10
44 22 7 12 3 5 4 2 2 3 4 6 8 3 1 1 2 2 2 3 3 5 5 3 4 2 2 2 5 4 4 1 1 2 3 5 7 7 11 7 6 9 9 12 11
28 11 7 14 8 1 4 3 0 4 6 5 3 3 2 1 1 2 2 3 4 2 3 3 3 1 1 4 4 3 5 3 2 3 5 4 6 10 9 8 9 11 12 15 11
7 4 9 9 4 5 2 3 1 9 14 7 7 4 3 3 2 2 3 1 3 1 4 3 4 4 2 4 7 1 1 3 2 4 3 6 5 5 8 5 7 12 12 15 15
7 2 14 10 4 2 1 5 7 2 6 7 8 4 3 4 4 5 7 4 1 1 2 0 4 5 10 1 3 3 7 6 4 4 4 4 14 9 7 3 6 9 13 14 16
3 3 10 8 2 3 5 5 3 8 1 2 5 1 8 6 5 3 2 4 4 3 2 3 2 2 5 2 3 4 5 5 3 3 7 6 9 4 7 10 8 8 12 12 14
3 4 4 5 3 4 6 3 5 10 5 1 7 6 5 5 4 6 2 3 3 2 5 3 4 9 10 8 4 4 6 6 6 3 6 14 21 20 17 8 8 8 8 11 13
3 1 1 4 3 3 3 4 11 7 2 2 3 6 2 4 4 7 4 7 13 15 3 6 6 4 5 5 4 5 9 9 9 14 8 24 16 21 6 6 6 7 7 9 11
2 3 4 3 6 6 1 2 7 8 4 4 4 6 8 5 6 8 13 11 8 3 4 1 3 0 4 6 8 12 15 14 15 11 15 17 21 10 3 5 5 6 9 14 13
1 0 1 3 3 3 2 4 6 11 4 9 6 6 8 15 13 15 15 15 11 6 6 4 4 1 6 3 5 8 12 13 4 6 6 7 5 2 4 6 5 8 13 17 15
Wind_Direction
337 333 328 322 316 311 308 306 308 307 308 310 311 314 319 320 314 297 243 234 226 190 157 108 93 121 134 115 105 128 75 204 223 186 238 313 353 315 300 276 330 253 281 280 306
341 338 334 325 319 313 308 305 304 303 308 310 309 312 316 324 312 259 259 206 171 178 179 146 130 121 64 113 137 122 146 223 207 212 280 292 289 300 294 304 287 292 308 332 348
343 339 335 330 321 315 308 303 301 302 301 304 309 310 319 326 296 251 323 175 174 153 139 128 128 122 107 116 186 148 198 214 244 233 264 278 303 247 267 271 251 279 271 310 292
346 341 337 331 326 317 309 302 299 299 300 300 305 313 331 318 139 358 84 163 168 175 147 123 86 97 128 178 194 176 230 192 242 239 260 265 284 275 224 260 256 254 246 274 268
354 345 339 335 330 323 314 304 300 297 297 298 300 340 38 262 252 341 138 154 151 160 163 151 147 147 173 186 169 188 264 265 271 288 241 259 249 253 276 269 265 267 267 241 256
1 354 343 340 335 331 323 312 305 302 302 295 295 0 176 265 268 228 171 158 158 161 175 175 182 199 165 158 156 191 217 257 269 248 243 238 266 166 329 237 272 262 267 236 233
2 360 347 343 346 342 342 334 328 321 299 289 214 140 172 232 197 306 185 189 180 179 168 218 155 143 125 353 104 15 331 337 251 245 240 169 291 241 261 280 262 273 275 268 239
0 2 357 345 344 342 336 325 315 307 301 262 150 190 245 244 291 219 191 205 201 221 243 279 258 59 118 108 20 40 42 2 286 317 270 142 281 280 298 276 267 280 288 290 268
1 1 1 354 340 335 328 316 296 263 340 159 144 162 273 279 258 219 203 198 183 230 246 258 137 111 37 85 16 10 203 243 311 231 271 210 281 287 314 311 285 254 271 281 293
3 360 356 349 339 327 338 350 80 115 106 131 265 322 273 225 185 204 211 216 47 12 6 70 55 82 45 74 227 197 217 238 247 281 190 278 272 262 278 284 280 288 273 267 270
359 358 357 352 335 318 325 258 27 302 208 204 188 242 288 292 273 199 188 130 70 87 195 24 92 217 220 199 198 219 204 228 258 267 245 264 273 276 263 289 284 291 293 278 271
356 355 354 350 333 306 255 198 203 244 296 232 247 245 260 344 339 172 153 134 138 190 131 24 247 230 202 187 203 212 247 264 272 261 172 274 282 246 227 240 240 251 278 288 297
351 350 350 348 329 305 227 224 305 257 271 293 189 201 203 160 218 261 154 147 163 180 179 172 231 109 175 215 205 230 192 240 227 310 297 290 289 276 229 223 253 261 246 261 254
346 346 346 347 16 10 257 162 323 173 29 274 243 237 133 134 228 208 187 143 193 203 161 226 240 228 211 249 150 280 205 230 227 107 264 358 290 301 258 267 251 260 264 257 265
342 342 341 338 297 240 180 327 326 144 339 162 145 175 161 163 212 200 162 106 191 182 133 235 174 159 206 232 148 232 181 193 216 222 26 275 279 282 343 293 269 280 271 268 263
337 335 334 324 281 251 284 331 115 33 255 355 127 155 143 249 290 123 153 87 154 155 271 239 175 176 211 251 186 93 106 52 48 120 217 238 235 64 267 245 292 309 294 278 282
331 329 321 291 244 170 340 80 53 215 326 12 13 71 198 210 177 161 180 170 190 137 240 301 258 233 179 210 35 88 75 310 312 265 269 238 277 259 276 287 306 318 306 296 280
329 327 324 296 266 250 131 62 178 351 348 350 333 314 255 17 63 14 92 251 213 178 158 196 284 177 181 180 185 173 161 178 246 271 284 165 252 260 263 264 295 286 307 316 319
332 339 359 351 297 187 81 104 240 54 352 315 315 247 190 210 110 63 242 229 227 158 172 185 269 338 65 127 132 181 184 135 347 245 319 223 296 311 272 276 288 322 339 326 319
332 333 13 15 112 92 80 228 260 31 324 319 285 14 276 240 199 183 227 210 153 148 107 227 281 272 128 119 58 144 142 65 13 298 267 257 272 264 282 291 315 315 327 318 312
350 29 357 355 352 51 147 244 306 17 9 349 326 313 277 277 238 229 232 320 30 53 136 155 146 279 22 204 187 88 131 70 136 168 225 306 256 226 255 290 313 320 325 324 320
350 50 355 3 52 51 63 325 322 31 358 328 336 348 349 344 256 223 235 203 54 66 230 127 157 222 219 318 302 154 192 158 156 235 224 229 274 246 287 340 340 324 327 327 324
356 282 344 358 78 32 337 334 314 25 211 286 252 346 346 325 318 269 317 111 107 73 49 182 251 292 322 24 348 202 197 181 125 96 215 244 263 284 319 318 344 322 315 332 327
25 352 334 25 32 58 4 286 322 346 311 250 261 341 7 279 252 278 256 332 27 8 339 175 198 225 248 252 165 194 213 199 163 160 244 237 276 279 286 294 307 302 308 321 335
25 13 169 330 344 332 282 289 294 295 303 321 271 212 202 268 289 244 288 324 310 296 232 170 220 207 257 256 216 235 240 225 206 240 224 275 264 280 265 246 274 293 302 323 337
48 14 358 298 307 312 185 276 284 310 353 284 227 236 249 248 258 291 293 268 252 242 197 202 245 240 261 267 256 255 253 239 240 251 256 261 271 278 239 263 275 298 324 318 315
68 58 272 293 301 295 240 294 348 339 277 256 287 315 282 272 258 272 275 268 248 214 198 176 160 71 277 262 312 279 251 238 202 231 228 235 252 198 276 310 317 313 314 304 300